Content
SEND FEEDBACK

Daily
Averages
Monthly
Summary
United States of America

ROME, GEORGIA


Home > North America > United States > Georgia
Elevation: 644 feet     Latitude: 34 20N     Longitude: 085 09W

WEATHER
 
SELECT A DAY
Number of Records: 210,675;   Date Range: 1/1/95 - 7/29/14
 
SHARE

PRINT THIS DATA

[ ← Previous Day ]
WEATHER ALMANAC - MARCH 6, 2014
[ Next Day → ]
[ °C ]   °F
Weather ElementAverageHighLow
Temperature40.5 °F48.9 °F (1:53 pm)36 °F (1:53 am)
Dewpoint31.4 °F37.9 °F (9:53 pm)18 °F (11:53 am)
Humidity75.3 %100 % (1:53 am)30 % (12:53 pm)
Barometer30.08 in30.17 in (9:53 am)30.00 in (11:53 pm)
Wind Speed4.7 mph16.1 mph (12:53 pm)
Wind Gust23 mph (9:53 am)
Weather ElementAverage
Visibility8.6 mi
Wind DirectionESE (98.7 °)

Weather ElementTotal
Precipitation0.38 in
Heating Degree Days22.6 (Base 65)
Averaged from 23 records on March 6, 2014
WEATHER CONDITIONS BREAKOUT
WIND DIRECTION BREAKOUT
WEATHER BY HOUR - MARCH 6, 2014
[ °C ]   °F
Local TimeTemperatureDewpointHumidityBarometerVisibilityWind DirectionWind SpeedGust SpeedPrecipitationEventsConditions
1:53 AM36.0 °F36.0 °F100 %30.12 in10.0 miCalmClear
2:53 AM37.0 °F35.1 °F93 %30.12 in10.0 miCalmClear
3:53 AM37.0 °F35.1 °F93 %30.09 in10.0 miNorth (360°)3.5 mphClear
4:53 AM39.0 °F36.0 °F89 %30.10 in10.0 miCalmClear
5:53 AM39.0 °F35.1 °F86 %30.10 in10.0 miCalmClear
6:53 AM41.0 °F32.0 °F70 %30.12 in10.0 miEast (100°)3.5 mphClear
7:53 AM42.1 °F30.0 °F62 %30.12 in10.0 miEast (90°)6.9 mphMostly Cloudy
8:53 AM43.0 °F28.9 °F58 %30.15 in10.0 miEast (100°)4.6 mphOvercast
9:53 AM44.1 °F21.0 °F40 %30.17 in10.0 miSE (130°)8.1 mph23.0 mphOvercast
10:53 AM45.0 °F19.9 °F37 %30.12 in10.0 miEast (80°)11.5 mphOvercast
11:53 AM45.0 °F18.0 °F34 %30.13 in10.0 miEast (100°)8.1 mph18.4 mphOvercast
12:53 PM48.0 °F18.0 °F30 %30.09 in10.0 miEast (100°)16.1 mph23.0 mphOvercast
1:53 PM48.9 °F19.0 °F31 %30.06 in10.0 miEast (90°)11.5 mphOvercast
2:53 PM44.1 °F28.9 °F55 %30.06 in10.0 miSouth (180°)6.9 mph0.01 inRainLight Rain
3:53 PM37.0 °F34.0 °F89 %30.07 in4.0 miSE (130°)11.5 mph17.3 mph0.09 inRainRain
4:53 PM37.0 °F35.1 °F93 %30.06 in7.0 miESE (110°)3.5 mph0.14 inOvercast
5:53 PM37.9 °F36.0 °F93 %30.04 in7.0 miNE (40°)3.5 mph0.05 inRainLight Rain
6:53 PM37.9 °F36.0 °F93 %30.03 in9.0 miNNW (340°)4.6 mph0.01 inRainLight Rain
7:53 PM37.9 °F37.0 °F97 %30.02 in6.0 miNW (320°)3.5 mph0.02 inRainLight Rain
8:53 PM37.9 °F37.0 °F97 %30.01 in7.0 miCalm0.03 inRainLight Rain
9:53 PM37.9 °F37.9 °F100 %30.02 in5.0 miCalm0.02 inOvercast
10:53 PM39.0 °F37.9 °F96 %30.02 in5.0 miCalm0.00 inRainLight Rain
11:53 PM39.0 °F37.9 °F96 %30.00 in7.0 miCalm0.01 inOvercast
Hourly data recorded from KRMG, located miles away from Rome, Georgia







STORIES FROM OUR PARTNERS